GFSFLT1_700_rhum_228.txt.gz
RH
36 31 31 31 31 30 30 31 30 30 30 31 32 31 31 31 31 30 32 40 48 63 63 63 62 66 72 72 69 64 61 63
35 32 32 33 33 34 33 34 34 34 34 33 33 31 33 36 36 34 34 34 39 50 60 67 68 55 69 86 84 81 72 74
36 35 34 33 31 33 34 34 36 35 33 32 34 34 33 29 30 37 37 36 36 43 85 62 82 73 67 68 98 96 80 78
40 38 35 36 36 36 37 38 38 38 36 36 39 41 41 38 26 25 33 37 37 38 89 83 80 92 97 79 93 85 88 87
41 39 40 41 42 42 43 43 43 45 46 46 48 48 44 39 33 26 30 38 43 46 53 77 97 74 97 96 98 99 99 96
41 44 48 53 52 50 48 50 51 54 55 53 50 45 35 31 35 28 39 44 46 47 57 84 100 99 99 99 100 96 99 100
45 47 53 56 52 51 53 56 56 52 47 44 45 52 48 45 47 44 45 53 54 56 51 49 62 89 96 99 97 99 99 99
54 58 59 52 52 55 59 53 42 31 23 17 20 21 21 18 18 28 38 34 42 69 81 73 60 55 67 78 96 99 100 100
63 66 67 66 67 63 53 47 33 54 34 18 14 14 14 15 13 16 16 18 39 59 100 98 75 70 81 91 94 92 96 99
73 73 71 66 67 64 64 62 67 93 68 22 12 12 17 24 17 16 16 21 38 78 70 71 73 88 69 81 87 98 95 84
76 71 71 71 54 53 72 92 91 90 56 28 18 14 26 49 56 51 23 43 78 100 97 94 90 62 61 64 82 90 97 98
72 70 60 44 62 76 91 92 80 52 30 19 14 53 56 51 68 70 80 93 74 69 66 86 65 51 49 52 70 83 97 98
62 47 33 38 55 78 92 77 64 27 15 16 70 75 82 78 95 97 77 70 68 61 58 55 48 45 46 39 38 54 60 88
52 52 51 57 56 52 58 66 35 17 20 67 99 100 88 75 72 64 70 79 77 70 63 60 58 58 36 27 28 32 24 27
38 42 40 29 42 28 20 23 16 26 70 93 99 88 92 78 82 92 79 77 63 61 56 55 41 28 27 22 17 14 16 17
11 12 16 26 32 35 20 17 19 52 83 86 100 95 80 76 53 67 64 61 60 53 52 52 46 40 28 25 23 22 14 14
13 18 34 36 36 41 43 19 54 77 80 86 91 91 78 72 75 75 74 65 42 34 32 30 30 30 30 28 21 20 20 18
18 24 30 39 42 49 52 58 73 80 83 80 89 89 88 82 72 50 43 43 40 34 31 30 30 31 29 24 20 18 14 13
25 30 34 37 42 51 58 56 60 60 68 72 67 60 42 39 34 40 42 38 31 30 29 28 25 27 25 22 19 17 16 16

GFSFLT1_700_rhum_234.txt.gz
RH
33 33 34 35 37 37 34 30 32 34 34 34 36 36 37 37 37 36 37 36 34 32 32 36 38 39 55 87 93 93 90 77
35 35 36 37 38 39 32 29 30 31 30 33 34 38 37 34 31 31 31 31 31 31 33 32 28 26 30 36 40 68 87 92
38 37 38 39 40 40 32 32 33 34 33 34 34 31 29 29 30 30 28 25 27 28 21 35 38 33 25 29 41 45 81 85
40 40 41 41 41 38 34 39 41 40 38 39 39 39 33 20 12 12 19 17 12 25 28 21 33 42 38 31 36 52 94 99
42 45 45 43 42 39 40 42 43 43 42 40 45 38 18 2 1 1 1 2 5 10 22 17 8 25 38 39 34 39 45 89
46 45 44 43 41 40 44 44 45 42 41 43 29 3 1 1 1 1 1 1 2 2 2 3 3 4 11 24 34 40 50 46
46 45 44 43 43 45 47 47 47 42 37 6 2 1 1 1 1 1 1 2 2 4 3 5 6 8 9 15 66 89 97 87
46 47 44 43 45 50 52 55 49 36 4 2 2 2 3 3 3 8 17 20 20 22 26 27 16 12 11 12 24 69 98 99
47 45 44 46 54 57 62 54 45 4 2 3 8 10 7 7 16 38 32 23 26 31 29 24 53 46 39 55 46 72 89 98
44 44 47 56 62 68 60 35 2 3 4 11 15 10 9 14 50 43 42 37 40 38 47 60 35 43 51 52 50 58 57 80
49 54 62 68 68 64 50 8 4 7 8 18 16 10 10 40 59 50 47 41 39 45 55 56 54 60 61 60 60 57 92 91
67 67 72 71 69 65 26 5 8 9 12 19 12 9 12 49 58 50 47 34 21 29 45 46 46 55 60 52 63 64 57 87
78 86 83 76 72 58 11 9 10 12 13 19 7 9 28 46 46 49 42 28 23 29 34 43 45 48 47 51 56 48 58 59
97 94 81 75 63 26 11 10 11 12 13 18 17 24 33 44 51 48 44 28 31 41 42 45 42 32 32 38 40 39 39 46
97 85 77 62 42 14 9 9 11 12 13 21 24 27 42 48 49 50 44 41 37 40 50 42 27 26 25 26 28 30 31 30
82 72 62 63 26 8 8 11 13 15 17 25 31 46 48 58 54 48 45 48 54 46 32 30 28 25 24 25 28 32 30 28
63 71 62 54 13 11 15 16 15 18 21 23 33 43 55 65 64 63 66 69 40 32 34 32 26 22 20 18 19 22 23 24
64 49 38 10 14 22 19 18 19 20 22 25 29 35 51 62 68 77 79 35 26 25 14 10 9 9 7 6 5 5 6 6
34 13 9 11 16 21 23 24 20 22 25 28 31 34 38 39 41 43 26 15 14 13 12 10 9 7 6 5 4 4 5 7

GFSFLT1_700_rhum_240.txt.gz
RH
36 36 36 36 36 37 38 39 41 42 38 32 32 32 32 34 36 36 38 39 38 36 34 34 32 30 31 31 30 29 28 28
38 37 36 36 37 39 42 43 44 43 37 35 37 36 38 40 42 41 36 33 30 26 24 25 28 29 27 25 31 34 35 33
39 39 39 38 39 42 46 48 47 43 41 41 44 45 45 42 40 38 32 26 16 9 4 3 2 2 2 2 3 9 22 36
37 40 42 42 43 48 52 51 48 46 45 45 47 47 46 47 44 39 35 26 12 4 2 1 1 1 1 1 1 1 1 1
47 46 48 48 52 58 55 53 51 54 53 50 50 49 51 49 44 38 30 17 6 2 1 1 1 1 1 1 1 1 2 3
52 50 53 59 64 64 63 77 88 81 58 60 63 63 53 48 41 22 6 1 1 1 1 1 1 2 3 5 8 10 11 12
54 56 57 63 82 94 96 96 97 94 82 83 84 63 54 36 12 2 1 1 1 1 2 2 4 6 8 11 13 11 11 13
52 56 60 62 72 77 86 98 95 92 91 81 73 51 26 5 2 2 2 2 3 5 6 6 8 10 10 10 12 16 18 21
55 57 62 71 97 99 98 94 96 99 99 89 56 39 10 3 2 3 3 6 10 12 14 17 20 19 15 12 16 18 20 22
64 60 61 65 75 96 94 93 98 99 94 69 52 26 6 3 4 4 4 8 18 17 19 25 22 13 13 11 10 9 12 16
73 68 64 65 83 97 98 96 97 96 71 63 44 16 5 4 5 6 7 10 17 22 24 30 17 12 12 13 13 16 14 14
78 73 68 75 84 82 99 98 99 78 70 55 32 9 6 7 7 7 8 11 14 23 32 34 27 26 26 20 20 20 13 11
87 82 78 81 86 97 99 100 93 75 59 50 23 9 9 9 8 8 7 8 12 20 31 41 45 36 34 33 31 22 14 14
87 94 85 94 96 99 98 98 85 59 52 38 16 12 12 12 10 10 9 9 11 22 34 41 44 50 46 41 30 18 20 17
98 98 98 99 98 96 98 88 62 56 51 23 17 20 18 15 14 12 11 12 16 22 45 49 52 48 49 45 27 24 21 16
98 99 99 99 98 81 62 58 58 54 30 23 27 22 17 16 18 19 17 16 18 24 36 58 58 57 58 52 26 21 13 8
88 70 73 67 51 47 53 52 37 32 33 40 42 33 28 24 21 21 23 24 26 28 34 37 47 66 69 37 17 11 8 7
30 26 30 40 44 36 27 25 27 39 54 52 45 48 53 68 55 48 54 53 40 34 35 34 34 43 32 15 12 11 9 7
16 12 15 19 20 21 24 31 42 56 74 88 88 76 77 85 91 82 71 80 72 48 35 30 25 26 19 16 15 13 11 9

GFSFLT1_700_rhum_243.txt.gz
RH
37 37 38 39 41 41 41 43 46 44 44 43 40 38 38 36 36 36 36 39 40 36 33 29 25 19 16 16 21 28 32 31
40 40 40 42 44 46 49 51 49 48 46 46 60 42 39 38 41 44 44 42 42 38 34 29 21 11 5 3 3 2 3 4
44 45 45 47 50 54 56 55 54 50 47 46 57 55 52 49 50 52 53 49 44 40 36 28 20 8 3 2 1 1 1 1
51 50 51 52 52 56 60 58 54 52 54 56 58 62 60 62 61 61 53 47 41 34 28 18 7 2 1 1 1 1 1 1
50 52 52 53 59 62 76 63 59 56 57 63 73 83 88 85 74 76 80 55 38 25 10 3 1 1 1 2 2 2 2 4
36 46 55 57 61 65 69 84 97 98 99 89 98 96 89 82 87 61 23 16 7 2 1 1 1 2 2 4 5 6 6 7
38 45 56 61 64 66 73 88 92 95 99 98 99 98 97 91 54 17 6 2 2 2 1 2 3 4 5 7 8 10 9 7
40 45 59 62 67 71 70 79 88 93 92 98 98 97 94 62 36 13 3 3 3 2 4 7 9 10 12 15 14 12 10 7
45 50 55 68 67 71 69 82 94 93 97 98 98 97 67 48 22 6 4 4 4 4 7 12 15 14 18 17 14 13 10 9
50 55 66 74 69 70 70 85 90 90 99 98 97 68 61 46 20 5 5 6 5 5 7 10 18 20 25 25 16 10 7 5
56 66 72 79 73 72 76 86 90 95 98 97 84 69 58 45 20 7 7 8 7 6 6 10 18 26 27 29 15 12 15 11
62 69 75 83 77 78 87 92 96 98 98 97 79 65 54 35 18 11 11 11 9 7 7 8 20 26 31 31 24 27 27 22
71 73 84 87 82 81 96 98 97 99 97 93 64 56 49 30 15 14 14 13 11 9 8 7 7 18 31 36 36 37 35 36
73 84 94 96 100 98 97 95 98 96 91 61 57 55 47 22 16 13 12 12 11 12 12 10 9 9 20 39 45 46 43 40
80 78 94 99 98 97 98 95 90 67 58 57 56 48 30 23 20 21 18 16 15 15 16 15 15 14 18 42 57 54 56 54
81 84 91 77 82 64 71 57 48 51 49 46 37 39 47 46 41 37 31 28 29 25 23 23 22 23 26 29 41 60 71 49
62 56 40 26 26 26 24 23 22 19 20 24 31 44 51 46 46 50 49 44 51 52 45 45 46 40 36 35 37 44 37 17
58 20 15 17 19 19 20 21 22 26 33 41 51 62 70 75 76 76 78 69 70 72 68 67 63 68 52 34 29 32 22 16
19 17 18 18 17 18 20 22 25 31 43 60 77 81 84 86 88 89 91 90 80 73 85 67 67 71 76 53 27 22 20 19

GFSFLT1_700_rhum_246.txt.gz
RH
38 38 38 40 42 46 48 51 50 48 48 49 46 44 43 42 42 40 38 39 39 40 41 41 39 38 35 33 29 24 17 10
42 43 43 44 43 49 59 63 60 58 55 51 48 51 61 66 72 44 44 46 48 52 51 48 45 42 39 37 31 21 10 4
50 51 50 50 51 51 51 57 59 63 71 80 82 75 56 52 52 52 54 56 53 55 62 63 53 38 35 30 19 7 2 1
39 42 47 51 55 59 62 63 64 64 62 55 51 52 56 61 63 64 68 66 66 68 65 65 57 52 25 9 4 2 1 1
24 26 27 34 51 58 67 70 69 71 73 84 81 70 72 71 74 74 75 80 80 83 82 46 34 10 4 2 1 1 2 3
29 31 33 36 44 55 64 70 72 74 78 86 95 99 99 97 99 99 99 99 93 63 26 8 3 3 2 2 4 4 6 8
30 36 36 36 41 56 64 77 76 74 80 86 95 100 100 99 98 96 92 93 92 59 14 4 2 2 4 8 11 11 14 13
36 40 42 48 50 62 70 81 78 76 75 83 98 95 97 99 97 69 46 28 15 9 4 3 4 5 6 12 16 18 19 17
44 46 48 58 62 71 74 82 80 77 77 89 95 94 96 97 91 57 47 30 22 10 4 4 5 6 8 16 22 25 25 19
51 49 51 62 67 75 76 84 83 79 80 85 90 96 98 94 94 87 78 43 15 6 6 6 6 6 8 12 18 23 25 26
54 52 58 65 72 79 82 85 92 94 92 94 94 98 97 97 92 92 69 25 11 8 7 8 7 6 6 7 12 19 26 29
59 63 66 67 78 85 85 89 95 97 95 96 97 98 96 93 83 56 37 17 10 8 10 10 10 9 9 9 10 19 28 36
63 66 69 76 87 99 97 98 99 97 96 97 98 96 61 57 52 44 25 15 13 13 12 12 12 12 13 12 13 16 29 38
72 74 76 79 89 89 94 96 96 97 90 74 64 56 56 58 49 33 21 22 27 27 24 20 16 15 15 16 16 18 21 41
74 76 72 66 57 47 65 88 77 70 54 46 35 31 31 33 37 40 46 50 52 51 46 36 30 28 23 21 21 22 23 27
75 75 72 52 24 20 38 49 38 27 20 20 23 29 37 45 51 59 66 76 75 74 63 52 50 42 37 35 35 31 28 27
84 80 36 16 13 13 14 15 14 15 16 17 19 26 41 58 68 78 84 88 94 100 100 85 76 67 60 63 63 58 51 38
83 42 18 15 12 12 11 10 8 6 5 6 8 11 15 24 37 50 68 71 87 92 92 99 97 95 85 71 76 76 70 59
53 23 16 11 10 8 4 2 2 2 2 2 3 3 3 3 3 3 4 5 13 72 77 56 98 77 98 94 83 78 78 70

GFSFLT1_700_rhum_252.txt.gz
RH
35 34 36 38 41 44 49 48 50 56 70 69 65 65 66 71 74 81 74 59 53 60 57 49 44 44 46 42 43 44 46 45
38 38 36 32 35 42 44 46 49 50 55 59 65 70 66 66 68 80 92 92 90 87 98 90 98 85 70 54 54 59 61 60
19 22 26 24 23 23 24 26 28 30 40 53 61 65 66 67 63 62 81 75 78 84 90 93 92 89 92 89 79 76 66 61
19 20 22 23 27 30 32 32 32 34 38 51 63 70 72 68 61 66 76 81 83 79 84 78 77 74 81 78 80 76 81 95
23 24 25 27 32 33 34 36 40 39 41 51 68 76 73 66 63 70 79 90 84 75 79 86 96 98 97 98 95 95 94 78
31 37 39 37 34 35 37 41 43 45 47 58 76 78 72 67 66 75 88 96 94 78 71 80 82 70 61 34 26 57 70 63
47 50 44 41 42 39 41 46 46 54 58 68 77 82 78 72 77 88 94 92 96 85 88 78 57 42 34 62 81 54 16 6
76 69 52 52 48 46 47 49 53 62 68 75 79 84 84 82 85 94 86 96 79 74 84 91 87 91 91 71 45 20 18 11
85 66 58 54 54 57 62 65 56 80 75 77 83 85 88 89 92 91 96 81 75 66 54 58 50 45 39 26 14 8 6 6
64 58 55 52 57 56 60 76 67 95 96 84 86 91 95 91 90 93 95 76 67 49 35 30 29 26 15 10 8 8 7 7
61 59 54 57 60 57 57 66 76 100 100 98 97 100 94 98 99 96 82 53 21 16 15 14 13 13 14 14 9 9 10 8
65 58 59 60 62 57 62 64 73 91 98 100 99 85 87 84 94 58 32 15 11 10 13 13 14 21 32 36 37 23 10 13
65 64 66 61 64 65 67 65 57 48 42 54 63 59 40 28 32 18 16 16 20 23 21 18 22 36 47 65 78 94 93 65
72 74 71 72 74 69 70 61 41 16 10 10 12 10 11 13 12 11 8 7 6 6 10 17 30 30 45 48 54 56 66 80
73 77 78 78 72 71 65 36 10 8 8 8 7 6 4 2 2 2 2 2 2 2 3 3 3 5 7 16 52 84 92 97
73 79 82 77 75 68 26 8 7 6 4 2 2 2 2 2 3 3 4 4 4 4 4 3 3 3 4 4 4 5 12 18
78 78 80 78 62 20 8 6 4 3 3 3 3 3 4 4 5 6 6 6 5 5 4 3 3 4 5 6 10 7 6 5
80 85 86 73 32 8 6 3 3 3 3 4 4 5 5 6 7 8 8 7 6 4 4 5 6 6 6 6 7 9 6 6
82 84 82 36 8 5 3 3 3 4 4 4 5 7 9 10 10 10 8 5 4 6 6 7 8 10 13 13 14 14 11 9

GFSFLT1_700_rhum_255.txt.gz
RH
38 38 40 42 40 39 37 33 27 27 29 36 47 61 63 65 72 72 74 78 80 74 82 84 83 90 66 71 68 50 46 56
38 39 36 29 27 24 25 28 31 32 33 34 38 46 56 68 72 70 68 65 67 72 76 70 69 67 72 80 98 99 92 78
20 19 21 23 23 24 29 32 33 34 38 40 42 44 51 64 71 71 68 64 65 71 71 74 68 65 72 79 76 75 79 92
19 20 22 23 24 28 33 33 34 36 42 43 45 51 61 68 73 73 71 65 66 70 78 75 74 64 70 77 80 88 91 84
30 27 30 35 37 36 35 38 38 40 43 44 50 54 61 72 76 74 70 69 71 76 73 71 61 62 64 75 79 76 67 59
46 35 43 42 42 42 41 40 43 42 44 47 55 62 69 76 81 80 77 81 84 83 82 66 58 67 74 61 48 49 63 78
50 56 54 48 49 50 44 43 44 44 51 55 63 73 78 81 84 85 86 87 87 90 80 67 64 60 76 86 87 85 82 73
59 63 57 59 57 54 52 52 50 46 56 61 67 83 87 89 88 90 91 92 89 87 82 66 62 41 38 43 45 39 28 20
81 73 71 63 58 53 54 55 52 51 56 63 56 64 85 89 94 98 94 86 74 75 64 26 19 19 17 15 14 12 10 9
79 80 70 61 58 60 59 58 57 63 90 92 94 92 88 86 83 81 63 33 33 19 15 15 14 14 18 20 15 13 14 13
76 76 70 60 62 62 61 61 61 68 79 90 90 78 49 54 50 35 14 12 11 10 9 7 6 6 5 6 10 13 15 17
72 73 64 65 69 68 66 65 69 68 62 58 48 28 12 12 8 8 9 7 5 4 3 3 3 4 3 4 7 13 24 40
70 61 60 65 72 73 67 67 66 57 42 19 8 6 6 6 5 3 2 2 2 2 2 3 3 3 3 3 3 3 4 41
64 66 65 68 70 70 68 70 60 26 7 6 6 5 3 3 2 3 3 4 4 5 6 6 6 5 4 4 4 4 3 4
70 67 63 66 68 71 67 48 18 7 6 4 3 3 3 4 4 5 6 7 8 9 9 8 7 6 4 4 5 5 4 4
72 72 72 68 67 70 58 17 6 6 4 4 4 4 5 6 7 9 11 12 13 13 13 11 9 6 5 6 6 6 6 5
74 74 80 74 70 67 15 7 6 5 4 4 5 6 8 10 12 14 16 17 17 16 12 8 6 5 6 8 12 12 11 10
74 81 83 79 72 22 7 6 5 5 5 6 8 10 12 14 16 18 19 19 16 11 7 5 6 8 10 11 13 13 15 16
77 86 85 78 45 7 6 4 5 6 7 8 11 13 15 17 19 19 20 18 11 6 6 11 16 18 20 21 20 19 16 14

GFSFLT1_700_rhum_258.txt.gz
RH
43 44 45 44 33 27 25 29 31 32 31 31 32 34 37 43 55 68 72 72 71 70 73 78 76 75 68 65 64 63 64 73
51 40 32 30 29 30 33 34 34 34 33 33 36 40 43 44 52 64 71 72 68 67 66 66 67 66 63 62 61 56 62 68
41 30 28 27 34 35 37 39 40 40 40 40 39 42 48 59 65 68 71 72 71 71 68 66 67 67 64 59 58 56 59 67
52 30 30 36 40 42 45 44 41 42 42 40 40 45 54 64 72 77 78 77 77 76 74 73 69 66 61 52 56 59 60 69
43 46 37 44 46 48 50 46 42 44 46 45 44 52 66 75 80 81 82 83 83 84 85 83 80 71 61 58 65 70 71 66
50 52 48 48 51 49 47 46 45 46 49 50 54 62 74 82 84 86 87 87 87 87 86 81 80 77 68 66 54 59 75 78
59 56 53 56 56 53 52 54 53 53 56 64 60 67 79 86 92 90 89 86 82 80 67 63 66 55 35 25 24 30 27 27
65 58 58 61 65 61 58 55 56 56 55 52 51 54 58 58 60 59 57 45 23 11 8 8 8 9 9 10 9 8 9 8
66 67 67 68 65 60 58 60 61 58 55 56 58 57 57 54 38 16 10 10 8 7 7 6 6 5 4 4 4 5 6 6
74 70 72 71 61 61 63 63 58 56 56 66 70 66 57 27 10 7 7 7 6 4 3 3 3 3 3 3 3 4 3 4
65 72 84 61 57 55 56 59 62 62 65 66 64 51 21 8 7 7 5 4 3 3 3 4 4 5 5 5 5 5 4 4
74 86 72 64 60 61 64 66 66 66 65 56 34 11 8 6 4 4 3 4 4 4 6 7 8 9 9 9 8 7 6 6
83 76 68 66 63 64 67 68 66 66 49 16 7 6 5 4 4 4 4 6 8 10 12 13 14 14 14 13 11 9 8 7
72 68 69 65 69 71 68 66 63 39 10 6 5 4 5 5 6 6 9 12 14 16 17 18 18 18 16 13 9 7 6 5
65 64 57 61 73 75 71 67 36 7 7 6 5 6 6 7 9 12 14 16 17 18 18 19 18 16 10 6 5 6 7 7
56 48 46 59 78 81 73 48 7 7 6 6 6 7 9 11 14 15 16 18 18 20 20 18 12 6 7 11 12 12 12 11
51 41 49 73 88 85 70 11 7 7 6 6 8 9 12 14 15 15 16 18 20 21 18 10 6 12 13 14 16 17 19 19
32 42 61 74 87 85 29 7 7 6 7 8 10 12 14 14 14 14 16 19 22 19 10 6 12 13 16 20 22 24 26 21
34 57 68 86 88 60 8 7 6 7 9 10 12 13 13 12 12 14 18 22 21 11 6 13 13 18 23 28 31 33 26 16

GFSFLT1_700_rhum_261.txt.gz
RH
54 48 51 34 32 34 35 35 36 37 37 37 36 36 36 36 38 42 46 52 61 66 67 66 67 67 66 65 65 62 58 56
56 58 62 34 39 41 44 44 42 38 37 37 36 35 35 38 44 48 52 58 63 66 66 68 70 71 69 65 62 61 54 52
65 69 37 42 47 50 50 47 43 38 37 38 39 40 42 48 55 63 71 73 73 74 73 73 71 70 70 69 64 62 54 56
51 69 45 55 55 55 50 45 44 43 43 43 42 44 47 53 61 69 74 75 76 77 77 78 78 77 72 68 63 59 54 55
50 54 57 58 59 58 56 53 49 46 46 44 44 47 50 54 62 65 71 73 73 76 80 78 70 55 53 62 69 62 56 54
77 92 78 77 71 62 51 54 52 51 50 48 48 50 55 63 65 71 72 73 68 62 44 32 8 6 6 7 11 9 10 10
74 74 78 72 69 60 52 57 56 56 56 56 54 52 53 61 62 57 39 16 8 6 6 6 7 6 6 5 4 5 5 5
65 72 74 76 69 61 54 58 58 57 55 58 56 53 58 61 52 32 8 6 6 7 6 6 6 6 5 5 5 4 4 4
67 69 74 72 71 70 57 55 54 55 58 62 61 58 56 46 20 6 7 7 6 5 5 5 6 6 7 8 8 9 9 9
68 65 73 73 84 65 59 57 56 56 61 61 62 62 42 11 6 7 6 5 5 6 6 7 8 10 12 13 14 14 14 14
77 76 78 85 78 61 60 56 59 65 68 68 62 39 10 6 6 4 4 6 6 7 10 12 14 15 15 16 16 17 17 17
76 76 86 85 63 61 60 61 63 67 68 60 34 10 6 5 4 5 6 7 10 13 14 14 14 14 14 14 15 15 14 13
74 88 92 66 60 57 62 66 67 67 62 35 9 6 6 5 6 7 9 12 14 14 14 15 14 13 14 14 13 10 6 5
78 93 75 56 50 54 66 72 70 66 35 7 6 6 6 7 9 11 13 14 14 14 15 14 13 14 13 11 6 6 7 8
85 80 55 50 52 62 70 79 74 41 7 7 6 7 8 10 12 13 13 13 14 15 15 14 14 14 10 6 7 9 10 12
82 59 48 42 52 61 73 81 65 10 7 7 8 9 10 12 13 13 13 14 16 16 15 15 15 10 6 8 10 13 14 15
64 53 38 42 63 67 80 80 24 7 7 8 9 11 12 13 13 13 14 16 17 17 16 16 11 6 9 12 15 16 18 20
63 41 36 55 66 76 82 59 8 7 8 9 10 12 12 13 13 14 15 17 18 18 17 13 6 9 13 16 20 21 24 27
36 31 49 59 67 78 79 19 8 8 8 10 12 12 12 13 14 16 17 18 18 18 15 9 8 14 18 22 24 25 27 28

GFSFLT1_700_rhum_267.txt.gz
RH
61 65 59 53 48 46 41 44 45 44 40 36 34 33 33 34 35 36 37 38 40 41 42 42 42 44 45 48 48 45 43 42
70 64 61 58 51 54 52 49 44 42 37 37 36 36 37 38 39 39 40 42 43 44 46 47 48 46 42 39 35 23 11 7
62 56 49 54 63 68 62 43 40 41 41 45 46 45 44 43 43 43 44 47 47 48 48 45 40 30 16 8 6 6 7 7
62 75 67 61 69 71 71 46 40 42 46 48 46 45 44 42 43 45 49 51 53 50 36 15 6 6 8 8 7 7 6 6
69 82 84 76 85 76 56 55 55 48 46 44 44 42 43 47 50 51 52 49 36 13 6 7 8 8 8 8 7 7 6 6
77 76 77 87 84 76 68 68 61 53 47 42 42 43 44 44 48 50 39 9 7 8 8 8 8 8 8 7 7 6 5 4
80 72 78 88 86 74 71 70 59 55 48 45 41 38 43 48 50 37 7 7 8 8 8 8 8 8 8 7 6 5 5 4
80 76 80 87 82 75 79 73 52 45 36 34 32 42 54 52 47 11 7 8 8 9 9 9 9 8 8 7 6 5 5 5
79 79 77 83 80 78 85 72 49 39 41 40 40 50 53 52 20 6 9 9 9 9 9 9 9 8 7 6 5 5 5 6
77 78 74 78 76 83 86 72 49 46 37 39 47 59 57 34 7 8 9 9 10 10 10 9 9 8 6 5 5 6 6 7
71 68 66 76 75 82 81 69 51 39 34 44 55 63 55 12 7 9 9 10 10 10 10 9 8 7 5 5 6 7 8 8
59 61 68 66 78 88 92 67 49 36 40 50 62 67 38 8 8 8 10 11 11 10 10 9 8 6 6 6 6 8 9 9
59 63 66 70 76 90 86 64 51 38 45 54 62 64 20 7 8 9 11 12 11 11 10 9 8 7 7 7 8 9 10 10
63 69 73 76 89 94 85 64 48 39 50 58 66 50 9 7 9 11 12 11 11 10 10 9 8 8 7 9 10 11 12 11
66 66 80 86 94 100 75 62 38 50 55 61 67 28 8 9 10 12 12 11 11 11 10 10 9 8 9 10 12 13 14 12
62 62 82 96 99 94 69 44 42 54 54 63 62 15 8 9 11 12 12 12 12 12 11 11 10 9 10 12 14 15 15 13
56 65 82 100 98 78 46 37 50 53 58 66 50 9 8 10 11 13 13 12 12 12 12 12 12 10 11 13 15 17 17 13
59 79 98 98 84 51 39 45 51 56 64 67 35 8 8 10 12 13 14 13 13 13 14 14 13 12 12 15 17 20 19 13
76 97 98 87 56 51 42 44 51 59 67 67 20 8 8 10 12 14 14 14 14 14 15 15 14 13 13 16 20 22 20 13

GFSFLT1_700_rhum_270.txt.gz
RH
67 63 67 52 48 45 48 51 49 42 40 38 34 30 32 33 32 31 30 32 34 36 38 40 41 41 40 39 33 20 12 8
60 64 54 54 52 51 54 55 41 38 35 34 36 37 36 34 34 36 36 36 38 42 44 46 44 40 30 12 6 6 6 6
64 60 62 55 55 62 66 52 43 44 42 42 40 37 37 36 33 32 35 41 43 44 45 41 21 7 7 7 7 6 5 5
60 70 60 58 59 61 67 61 57 50 44 40 39 37 34 30 30 37 45 45 43 38 21 7 7 8 7 6 6 5 5 4
71 80 76 76 73 76 72 68 60 49 48 44 40 33 28 32 41 47 47 35 14 7 7 8 8 7 7 6 5 4 4 3
68 75 71 76 77 74 70 68 50 44 41 34 33 33 35 37 41 48 46 18 6 8 9 8 8 7 6 5 4 3 2 2
64 72 70 72 73 72 75 75 57 43 39 42 41 38 38 42 48 49 20 7 8 9 8 8 8 7 6 5 3 2 2 2
66 77 70 72 73 74 75 81 70 50 45 42 32 29 38 49 53 35 8 7 9 9 9 8 7 6 6 4 3 2 2 2
75 79 73 72 76 73 74 78 76 57 48 41 30 37 46 55 53 16 7 9 10 9 9 8 7 7 6 5 4 3 2 2
72 77 76 70 78 72 71 78 74 62 52 44 34 38 48 58 43 10 7 10 10 9 8 8 7 7 6 6 5 4 3 3
72 77 78 77 74 77 85 85 77 69 57 45 34 42 52 58 32 8 8 10 10 10 9 8 8 8 8 6 5 4 4 4
71 75 74 72 77 73 77 89 84 70 60 38 36 47 54 58 22 8 9 10 11 10 10 10 9 9 9 8 6 5 5 6
59 59 60 67 73 73 82 91 85 72 60 34 41 49 56 54 14 8 9 11 11 11 10 10 10 11 10 9 7 6 5 7
52 51 56 65 71 77 81 98 89 70 52 35 45 52 59 45 10 8 10 11 12 11 11 11 11 12 12 10 8 6 6 8
54 58 62 64 70 81 90 99 92 69 39 39 51 56 64 36 8 8 10 12 12 12 11 12 12 13 13 12 9 7 8 10
56 63 64 65 74 88 96 95 85 52 40 43 54 60 66 27 8 8 10 12 13 13 12 12 13 14 15 13 10 8 8 10
64 66 66 69 78 96 97 91 64 43 46 46 56 63 66 20 7 9 11 12 14 14 13 13 14 16 16 15 11 8 8 10
71 70 74 75 90 97 93 78 48 49 41 43 55 64 63 15 7 8 10 13 15 15 14 14 15 17 18 16 12 8 8 12
50 63 61 82 89 87 80 58 51 40 36 43 52 67 55 13 7 8 10 13 15 16 16 16 17 19 20 18 13 9 9 14

GFSFLT1_700_rhum_273.txt.gz
RH
69 75 68 57 49 48 46 51 52 42 37 35 34 33 35 36 34 32 30 26 25 27 29 34 36 39 38 29 12 6 6 6
71 69 60 57 52 52 52 51 46 37 35 33 33 35 35 34 30 23 19 20 23 30 35 38 39 31 11 6 6 6 5 4
63 61 60 58 55 53 55 59 52 45 40 35 36 36 32 22 18 20 24 29 34 37 36 27 9 6 7 7 6 6 5 4
60 61 65 58 55 59 61 63 54 43 40 40 36 31 25 25 22 20 24 33 39 28 10 6 8 8 6 6 6 5 4 3
61 67 71 67 69 68 66 58 44 38 39 32 33 35 32 25 22 28 34 39 34 11 7 9 8 7 6 6 5 4 3 2
62 67 68 66 69 71 60 58 51 44 37 39 38 33 24 23 27 31 36 38 16 7 9 8 7 7 6 5 5 4 3 3
61 68 67 65 64 63 62 62 65 58 44 42 42 35 27 27 34 36 42 33 11 8 9 8 7 7 6 6 5 5 4 3
57 65 71 62 60 60 65 67 73 71 56 52 50 40 31 30 38 45 46 26 9 9 10 9 8 7 7 7 7 6 5 4
58 63 76 68 64 68 68 66 74 72 68 59 54 43 29 32 42 44 44 22 8 10 10 9 8 8 8 8 9 8 6 5
64 66 74 76 66 70 68 74 78 81 76 67 59 43 31 37 42 46 43 15 8 10 10 9 8 8 9 10 10 10 8 6
85 73 73 77 70 70 74 83 81 86 81 74 62 44 32 37 40 49 39 13 9 11 11 10 9 9 10 10 11 11 10 7
79 69 70 76 76 73 77 82 86 89 87 81 64 44 35 37 40 46 38 12 9 11 11 11 10 10 10 11 13 13 11 8
69 68 68 71 71 75 79 83 87 89 95 84 66 42 39 37 43 48 35 10 10 11 12 12 11 11 11 12 14 14 13 9
50 52 54 59 60 62 72 84 98 98 99 96 62 44 42 40 44 52 31 9 10 12 13 13 12 12 12 13 15 16 15 11
56 50 45 51 57 60 67 78 90 99 99 81 51 47 43 40 48 57 28 8 10 11 13 14 13 13 13 14 16 18 17 12
50 55 55 53 58 63 72 78 98 99 88 74 47 51 42 40 53 61 23 8 9 11 13 15 14 14 14 15 17 19 18 14
44 56 60 58 60 69 76 82 92 92 84 57 51 46 40 44 58 62 23 8 8 10 12 15 16 15 15 16 18 20 20 15
34 46 64 64 66 73 78 83 95 90 74 52 46 41 42 48 62 63 22 8 8 9 12 15 17 16 16 17 19 21 22 16
36 37 46 63 69 73 71 85 80 82 50 45 41 44 53 56 65 61 23 8 7 8 10 15 18 18 17 19 21 23 23 18

GFSFLT1_700_rhum_276.txt.gz
RH
70 69 70 71 56 51 47 48 51 50 36 36 34 31 29 30 29 24 16 12 13 14 24 30 31 32 22 8 6 6 5 4
76 71 77 65 57 54 52 52 50 44 46 42 35 30 30 26 19 17 16 12 15 24 29 32 26 10 6 7 6 5 5 5
69 63 65 58 57 55 54 53 55 55 45 34 31 31 26 25 25 18 14 17 20 27 31 19 7 6 7 6 6 5 5 4
67 60 60 61 59 56 59 60 61 42 37 37 31 33 28 19 12 14 19 24 29 31 20 9 7 8 6 6 6 5 5 4
65 60 63 64 60 66 64 60 43 37 35 34 34 32 31 25 23 19 25 26 30 30 16 8 8 8 6 6 6 6 6 5
60 62 65 64 62 67 65 50 48 48 42 39 45 44 38 29 22 20 20 26 35 30 15 9 9 7 7 6 7 7 7 7
66 63 63 66 62 61 55 52 55 58 61 54 53 49 42 29 23 20 20 21 28 30 14 9 9 8 7 7 8 8 9 9
73 62 61 67 63 55 51 50 54 60 67 63 61 58 47 36 26 24 27 26 32 31 13 9 10 8 8 8 9 9 10 11
76 64 60 66 69 60 57 56 60 63 68 69 72 67 57 44 33 24 28 30 36 27 11 10 10 9 8 8 9 10 11 12
74 73 61 64 68 71 64 64 66 71 77 81 78 75 66 49 41 30 29 35 38 26 11 10 11 10 9 8 9 10 12 13
79 82 65 66 65 70 73 69 72 75 75 75 82 88 73 52 45 36 31 35 39 32 12 10 12 11 10 9 9 10 12 14
78 81 94 76 63 66 71 77 78 77 79 79 91 86 82 55 48 40 35 35 42 34 12 10 12 12 12 10 10 11 12 14
79 90 96 86 71 64 61 72 77 75 81 86 93 94 79 54 51 42 36 36 46 35 12 10 12 13 13 12 11 11 13 15
79 85 75 53 60 60 55 58 61 68 82 89 92 96 82 55 52 43 36 38 47 37 12 9 12 13 14 14 13 12 14 16
76 87 70 59 52 52 55 54 59 69 78 89 98 96 81 55 51 41 35 41 49 43 13 9 10 12 15 15 14 14 14 17
77 88 80 51 55 58 52 53 59 72 77 86 97 86 72 53 48 38 42 48 51 45 14 8 9 11 14 16 16 15 16 18
72 82 83 34 40 55 61 60 66 81 81 90 100 91 61 46 42 46 57 54 55 45 18 9 8 9 13 17 18 17 17 19
57 79 64 37 33 50 66 72 73 85 84 94 100 79 48 39 46 54 50 51 57 46 25 14 10 9 11 17 20 19 18 20
34 39 42 38 38 40 64 72 74 77 83 95 88 50 38 40 48 48 48 53 59 51 39 27 16 9 10 16 21 21 20 22

GFSFLT1_700_rhum_279.txt.gz
RH
71 62 66 62 70 55 54 52 51 50 43 44 42 36 32 28 23 20 19 15 9 12 13 22 24 16 7 6 6 5 5 5
72 63 73 70 66 55 54 53 53 50 53 48 38 32 28 25 24 19 12 11 13 17 20 21 17 10 7 7 6 5 5 5
66 63 72 66 58 57 55 54 55 58 55 34 29 27 27 25 18 13 12 14 16 20 24 21 16 10 8 7 6 6 6 6
63 65 63 61 61 59 56 59 61 49 30 27 29 30 28 23 19 16 15 17 17 20 23 23 16 10 8 6 6 6 6 7
65 66 60 61 64 59 59 60 52 34 31 33 32 35 30 24 21 19 18 18 17 21 26 24 14 9 8 7 6 7 8 8
63 66 60 64 64 59 59 58 39 38 46 44 47 40 46 42 35 26 19 19 18 22 26 26 15 10 9 7 7 7 8 9
55 64 62 64 65 61 59 50 40 44 46 51 57 57 62 55 47 37 22 18 18 20 25 27 16 10 10 8 7 8 8 10
50 59 62 60 66 64 58 50 46 48 52 58 60 61 65 64 58 52 38 24 22 26 27 29 19 11 10 10 8 8 8 9
52 54 62 59 65 67 63 60 56 55 61 66 69 69 74 81 71 58 50 33 28 29 29 32 22 12 10 11 10 9 9 9
48 51 56 58 63 67 70 69 68 62 62 70 74 72 76 84 80 70 57 41 33 30 33 36 27 12 11 12 12 11 10 9
62 51 47 51 62 67 71 73 73 72 67 72 78 80 80 85 90 72 56 45 35 31 33 38 31 14 11 12 12 13 12 11
56 50 52 52 61 65 67 73 71 70 73 78 80 83 89 93 94 85 57 45 36 33 35 38 36 18 11 11 13 14 14 13
66 64 64 63 59 56 52 64 64 64 60 69 78 86 87 84 96 86 60 42 35 39 43 40 40 19 10 10 12 14 15 15
74 72 69 73 73 65 52 54 58 59 58 67 76 81 87 79 97 84 54 40 37 45 46 43 42 19 10 10 11 13 16 16
66 68 71 76 75 70 59 61 58 58 60 67 78 80 87 95 98 76 47 37 39 41 39 44 44 21 12 10 10 12 16 18
64 70 75 79 80 80 77 55 62 63 60 66 80 79 94 95 100 67 42 38 42 39 38 46 47 29 17 11 10 11 15 18
59 65 77 78 81 84 83 64 53 64 70 78 81 87 99 100 99 56 38 46 45 41 43 52 51 42 29 18 11 11 13 18
42 54 68 84 87 81 46 42 45 72 74 79 83 92 98 100 76 44 47 52 46 45 50 58 60 53 43 31 16 11 12 18
45 44 55 63 63 43 41 41 46 52 72 76 81 93 100 84 48 46 58 51 45 46 57 63 61 65 64 52 28 11 11 19

GFSFLT1_700_rhum_282.txt.gz
RH
64 72 68 68 69 64 58 54 53 53 50 48 48 44 33 26 24 20 14 9 8 9 12 15 18 14 11 8 7 6 5 5
56 66 72 72 68 62 58 54 53 54 55 54 40 28 27 25 21 16 11 10 11 12 15 18 19 16 11 9 7 6 6 6
49 58 70 70 62 61 59 55 55 58 57 44 30 30 28 23 20 16 13 11 13 14 15 18 20 18 13 9 7 6 6 7
47 56 71 69 62 61 60 56 61 57 35 28 26 28 32 25 23 21 16 13 12 13 14 17 20 19 13 10 8 7 7 8
47 59 66 66 60 63 60 59 58 48 30 27 31 41 41 43 39 37 27 20 16 16 18 19 21 21 15 11 9 8 7 8
39 53 65 65 61 64 59 56 58 40 33 36 42 52 47 49 50 52 51 39 23 20 20 21 21 22 19 13 10 9 8 8
42 60 71 63 63 64 61 54 56 42 39 46 53 52 53 60 64 68 66 60 42 25 24 23 21 24 23 14 11 11 10 9
44 48 50 60 62 63 65 57 54 48 46 52 61 63 65 68 72 77 79 68 55 30 27 26 24 27 27 20 12 11 11 11
48 39 50 59 64 62 66 63 59 56 56 55 61 68 73 76 80 86 90 69 63 36 29 29 30 31 30 23 14 12 12 12
35 38 44 59 65 62 64 67 66 66 67 65 66 72 79 86 86 89 75 84 68 36 30 32 35 32 31 26 16 11 12 13
33 33 40 54 62 64 65 67 69 73 75 75 75 78 83 88 85 88 83 88 68 38 30 33 37 36 35 29 18 12 11 13
30 29 36 48 58 63 68 72 70 71 75 77 81 85 87 88 90 96 83 88 73 39 32 35 34 36 37 32 19 12 12 13
39 33 38 45 42 42 46 60 67 72 75 73 77 83 84 87 93 98 98 90 72 39 36 38 32 32 40 37 20 15 13 13
55 66 53 54 58 63 66 64 57 70 74 74 78 79 83 87 93 96 98 98 69 38 41 42 35 33 43 39 25 22 17 14
60 62 65 68 67 69 74 75 80 85 78 80 87 82 86 91 97 82 100 100 63 38 48 43 37 38 46 46 40 33 24 18
65 65 69 68 70 75 78 80 83 87 88 90 91 93 93 91 99 100 99 100 54 44 52 41 38 45 54 56 48 42 35 24
66 70 73 73 75 77 80 83 87 94 93 94 90 89 87 87 98 100 99 96 50 56 50 42 43 53 59 57 58 59 53 42
62 60 60 60 60 67 82 89 95 92 72 79 82 85 85 89 100 100 99 64 50 58 51 53 49 57 60 68 74 73 70 54
51 49 46 32 32 58 91 95 85 60 61 73 67 67 79 90 97 99 85 50 63 55 60 63 58 63 66 74 79 80 75 54